sat.trackr.live / text

‹ back to catalog

PRAETORIAN SDA_615

NORAD 65578 · 2025-203P

PAYLOAD ACTIVE UNKNOWN

§ Identity

Operator
Country
US
Launch date
2025-09-10
Launch site
AFWTR
Launch vehicle
Mass (kg)
RCS (m²)

Purposes: military

External: N2YO · Heavens-Above · Gunter

§ Orbital elements

Epoch: 2026-05-25T02:27:21.616992Z

Period
104.01 min
Inclination
81.3045°
Eccentricity
0.0008077
Mean motion
13.84432937 rev/d
Perigee alt
942.3 km
Apogee alt
954.1 km
Semi-major
7,326.3 km
B*
1.6662e-4
RAAN
31.9486°
Arg perigee
253.9098°
Mean anomaly
106.1170°
Rev number
3,551

§ Raw data

PRAETORIAN SDA_6151 65578U 25203P   26145.10233353  .00000198  00000+0  16662-3 0  99922 65578  81.3045  31.9486 0008077 253.9098 106.1170 13.84432937 35517

JSON: /api/v1/satellites/65578 · /tle

For live sub-satellite position, see the globe view (requires WebGL).

§ Visibility from observer

Set your observer location to see the next 7 days of passes ≥ 10°. The values pass through the URL so the page stays shareable.

No JS? Fill the form by hand. The geolocation button needs JavaScript.